[[{"header":{"parameterUnit":"m.s-1","parameterCategory":2,"la1":30.2991,"la2":30.254,"lo1":-89.0895,"lo2":-89.0444,"dy":0.0017,"dx":0.0017,"nx":28,"ny":28,"refTime":"2024-07-13T09:00:00:Z","depth":"0","parameterNumber":2,"parameterNumberName":"U-component_of_CURRENTS"},"data":[0,0,0,0,0,0,0,0,0,0,0,0,0,0,0,0,0,0,0,0,0,0,0,0,0,0,0,0,0,0,0,0,0,0,0,0,0,0,0,0,0,0,0,0,0,0,0,0,0,0,0,0,0,0,0,0,0,0,0.2124,0.2125,0,0.2194,0.2195,0.2197,0.2256,0.2256,0.2256,0.2257,0.2375,0.2378,0.2381,0,0,0,0,0,0,0,0,0,0,0,0,0,0.2072,0.2073,0.2124,0.2125,0.2126,0.2194,0.2195,0.2197,0.2255,0.2256,0.2256,0.2257,0.2374,0.2378,0.2381,0,0,0,0,0,0,0,0,0,0,0,0,0,0.2117,0.2073,0.2124,0.2161,0.2164,0.2194,0.2196,0.2197,0.2255,0.2256,0.2256,0.2257,0.2373,0.2377,0.2382,0.2398,0,0,0.2395,0.2397,0,0,0,0,0,0,0,0,0.2114,0.2119,0.2155,0.2158,0.2162,0.2214,0.222,0.2266,0.2255,0.2224,0.2257,0.2257,0.2323,0.2332,0.2348,0.2404,0.2409,0.2395,0.2398,0.2399,0.2401,0,0,0,0,0,0,0,0.2111,0.2116,0.2156,0.2155,0.216,0.2183,0.2191,0.2229,0.2274,0.2227,0.2231,0.2233,0.2326,0.2343,0.2351,0.241,0.2395,0.2399,0.2401,0.2403,0.2519,0.252,0,0,0,0,0,0,0.2093,0.2113,0.2153,0.2157,0.2135,0.2184,0.2192,0.22,0.2272,0.2283,0.2232,0.2235,0.2336,0.2346,0.2356,0.242,0.2399,0.2403,0.2406,0.2519,0.252,0.252,0,0,0,0,0,0,0.2092,0.2096,0.215,0.2134,0.2142,0.2183,0.2192,0.2201,0.2227,0.2275,0.2287,0.2251,0.2337,0.235,0.2408,0.2424,0.2405,0.2409,0.2518,0.2519,0.252,0.2524,0,0,0,0,0,0,0.209,0.2096,0.2101,0.2133,0.2142,0.2177,0.2192,0.2201,0.2226,0.2231,0.2295,0.2306,0.2338,0.2401,0.2412,0.2429,0.2413,0.2518,0.2519,0.252,0.2523,0.2525,0.2526,0,0,0,0,0,0.2088,0.2102,0.2101,0.2106,0.2147,0.2177,0.2185,0.2218,0.2226,0.2243,0.2289,0.2304,0.2414,0.2406,0.2418,0.2437,0.2517,0.2518,0.2519,0.2522,0.2524,0.2526,0,0,0,0,0,0,0.2082,0.2109,0.211,0.213,0.215,0.2186,0.2202,0.2219,0.2267,0.2273,0.232,0.2335,0.2392,0.241,0.2399,0.2471,0.2465,0.2468,0.2462,0.2465,0.2466,0.2467,0.2416,0,0,0,0,0,0.2079,0.2096,0.2118,0.2131,0.214,0.2168,0.2184,0.2203,0.2243,0.2265,0.2306,0.2352,0.2404,0.2431,0.2475,0.2516,0.2547,0.2532,0.2534,0.2535,0.2543,0.2614,0.2624,0.2524,0.2524,0.2524,0,0,0.2076,0.2093,0.2102,0.213,0.2146,0.2165,0.2181,0.2204,0.2227,0.227,0.2319,0.2363,0.2417,0.247,0.2495,0.2489,0.2576,0.2536,0.2537,0.2545,0.2617,0.2627,0.2635,0.2525,0.2525,0.2525,0,0,0.2079,0.2094,0.2108,0.2126,0.2147,0.2167,0.2172,0.2207,0.2232,0.2278,0.232,0.2375,0.2439,0.2489,0.2521,0.2555,0.2585,0.256,0.2569,0.2638,0.2647,0.2656,0.2694,0.2705,0.2556,0.2556,0.2556,0,0.2072,0.2093,0.2116,0.2132,0.2144,0.2166,0.2179,0.221,0.2261,0.2287,0.2293,0.241,0.2451,0.2534,0.2547,0.256,0.2595,0.2559,0.2641,0.265,0.2659,0.2696,0.2709,0.2556,0.2556,0.2556,0.2556,0,0.2085,0.21,0.2109,0.2135,0.2154,0.2169,0.2201,0.223,0.2255,0.2289,0.2368,0.2431,0.2502,0.252,0.2549,0.263,0.2632,0.2639,0.2638,0.267,0.2706,0.272,0.2557,0.2557,0.2557,0.2557,0,0,0.2067,0.2109,0.211,0.2119,0.2155,0.2169,0.2208,0.2253,0.2283,0.2339,0.2394,0.2486,0.2519,0.2558,0.2601,0.2658,0.2743,0.2673,0.2677,0.2712,0.2882,0.2855,0.2867,0.2771,0.2774,0.2776,0.2878,0,0.2064,0.2091,0.2115,0.2134,0.2148,0.218,0.2213,0.2258,0.2304,0.2362,0.2439,0.2506,0.2534,0.257,0.2639,0.2727,0.2782,0.2714,0.2845,0.2848,0.2823,0.2884,0.282,0.2904,0.2891,0.2893,0.2895,0,0.2065,0.2084,0.2102,0.2135,0.2142,0.2157,0.2208,0.2241,0.2329,0.2368,0.2452,0.2511,0.2621,0.2626,0.2797,0.2755,0.282,0.2875,0.2881,0.2867,0.2848,0.2873,0.2929,0.28,0.2916,0.2914,0.2913,0,0.204,0.2072,0.2084,0.2095,0.2137,0.2151,0.2174,0.2244,0.2277,0.2374,0.2415,0.2546,0.2614,0.2731,0.285,0.2834,0.3023,0.3012,0.3045,0.3042,0.3019,0.301,0.297,0.3125,0.3125,0.3125,0.3124,0,0.2031,0.2036,0.207,0.2076,0.2087,0.2125,0.2149,0.2195,0.2268,0.2317,0.2414,0.2485,0.2648,0.277,0.2868,0.3006,0.3043,0.3066,0.3081,0.3015,0.3005,0.2916,0.2854,0.3129,0.3128,0.3127,0.3126,0,0.1997,0.2022,0.2031,0.2066,0.2073,0.2078,0.2116,0.2143,0.2213,0.2284,0.2317,0.2463,0.2627,0.2776,0.2967,0.3022,0.3079,0.3182,0.3078,0.3079,0.297,0.2911,0.2882,0.2829,0.3238,0.3238,0.3239,0,0.1984,0.1986,0.2008,0.2007,0.2016,0.203,0.2044,0.2108,0.2142,0.2272,0.231,0.2475,0.2597,0.2853,0.3008,0.3179,0.3084,0.3174,0.3132,0.2968,0.2916,0.2826,0.2776,0.31,0.3098,0.3098,0.3097,0,0.1949,0.1953,0.1959,0.1961,0.1965,0.1972,0.2,0.202,0.2109,0.2181,0.2299,0.2403,0.2654,0.2807,0.3008,0.3111,0.3021,0.316,0.3035,0.2846,0.2704,0.2657,0.3,0.309,0.309,0.3091,0.3091,0.3092,0.1911,0.1904,0.1911,0.1907,0.1909,0.1913,0.1911,0.1965,0.2019,0.2117,0.2246,0.2374,0.2589,0.2883,0.2963,0.2997,0.299,0.2929,0.2887,0.2822,0.2719,0.3026,0.31,0.3101,0.3101,0.3102,0.3103,0,0.1863,0.1863,0.1859,0.185,0.183,0.1856,0.1879,0.1877,0.193,0.2045,0.2154,0.2337,0.2496,0.2662,0.2785,0.2712,0.268,0.2633,0.248,0.2459,0.278,0.2718,0.2656,0.2656,0.2656,0.2656,0.2657,0.2657,0.1836,0.1817,0.182,0.1776,0.1767,0.1737,0.1742,0.1761,0.1818,0.1889,0.1969,0.2077,0.2249,0.2386,0.2385,0.2397,0.2241,0.2194,0.2162,0.2347,0.237,0.2391,0.2317,0.2171,0.2171,0.1801,0.1798,0.1795]},{"header":{"parameterUnit":"m.s-1","parameterCategory":2,"la1":30.2991,"la2":30.254,"lo1":-89.0895,"lo2":-89.0444,"dy":0.0017,"dx":0.0017,"nx":28,"ny":28,"refTime":"2024-07-13T09:00:00:Z","depth":"0","parameterNumber":3,"parameterNumberName":"V-component_of_CURRENTS"},"data":[0,0,0,0,0,0,0,0,0,0,0,0,0,0,0,0,0,0,0,0,0,0,0,0,0,0,0,0,0,0,0,0,0,0,0,0,0,0,0,0,0,0,0,0,0,0,0,0,0,0,0,0,0,0,0,0,0,0,0.0845,0.0845,0,0.0857,0.0857,0.0857,0.0858,0.0857,0.0857,0.0857,0.0787,0.0786,0.0784,0,0,0,0,0,0,0,0,0,0,0,0,0,0.083,0.083,0.0845,0.0845,0.0845,0.0857,0.0857,0.0857,0.0858,0.0857,0.0857,0.0857,0.0788,0.0786,0.0784,0,0,0,0,0,0,0,0,0,0,0,0,0,0.0839,0.083,0.0845,0.0846,0.0846,0.0857,0.0857,0.0857,0.0858,0.0857,0.0857,0.0857,0.0789,0.0786,0.0784,0.0775,0,0,0.0776,0.0775,0,0,0,0,0,0,0,0,0.0839,0.084,0.0846,0.0846,0.0846,0.0855,0.0826,0.0825,0.0858,0.0854,0.0857,0.0857,0.0802,0.0799,0.0804,0.0771,0.0768,0.0776,0.0774,0.0773,0.0773,0,0,0,0,0,0,0,0.0838,0.0839,0.085,0.0846,0.0846,0.0849,0.085,0.0827,0.0829,0.0854,0.0854,0.0855,0.0802,0.0806,0.0802,0.0767,0.0776,0.0774,0.0772,0.0771,0.0714,0.0714,0,0,0,0,0,0,0.0835,0.0839,0.085,0.085,0.0841,0.0849,0.085,0.0853,0.0831,0.0828,0.0855,0.0855,0.0811,0.0805,0.0799,0.0797,0.0773,0.0771,0.077,0.0714,0.0714,0.0714,0,0,0,0,0,0,0.0835,0.0836,0.0849,0.0844,0.0846,0.085,0.0853,0.0853,0.0861,0.0832,0.0827,0.0863,0.081,0.0803,0.0792,0.0794,0.077,0.0768,0.0714,0.0714,0.0714,0.0786,0,0,0,0,0,0,0.0834,0.0836,0.0841,0.0844,0.0846,0.0864,0.0853,0.0854,0.0861,0.0861,0.0837,0.083,0.0809,0.0796,0.079,0.079,0.0766,0.0714,0.0714,0.0714,0.0784,0.0789,0.0793,0,0,0,0,0,0.0834,0.0844,0.0841,0.0842,0.0851,0.0865,0.0867,0.0868,0.0862,0.0873,0.0858,0.0831,0.079,0.0795,0.0787,0.0787,0.0714,0.0714,0.0714,0.0782,0.0788,0.0793,0,0,0,0,0,0,0.0835,0.0845,0.0842,0.0852,0.086,0.0865,0.087,0.0873,0.0872,0.0865,0.084,0.0832,0.0822,0.0793,0.0798,0.0767,0.0743,0.0742,0.0797,0.0802,0.0807,0.0819,0.0764,0,0,0,0,0,0.0837,0.0851,0.0855,0.0864,0.0865,0.0868,0.0874,0.0876,0.0874,0.0874,0.0859,0.0833,0.0816,0.0802,0.0781,0.0768,0.0738,0.0758,0.0762,0.0766,0.0769,0.074,0.0742,0.0714,0.0714,0.0714,0,0,0.0839,0.0847,0.0853,0.0866,0.0867,0.0879,0.0871,0.0881,0.0893,0.0863,0.0871,0.0852,0.0817,0.0808,0.0798,0.0784,0.0757,0.0766,0.077,0.0771,0.074,0.0743,0.0745,0.0714,0.0714,0.0714,0,0,0.0848,0.0854,0.0866,0.0876,0.0884,0.0889,0.0893,0.09,0.0905,0.0913,0.0892,0.088,0.0853,0.0834,0.0818,0.0831,0.0786,0.0815,0.0844,0.0816,0.0818,0.082,0.0785,0.0783,0.0813,0.0813,0.0813,0,0.0847,0.0863,0.0871,0.0884,0.0892,0.0894,0.0906,0.0916,0.0922,0.0928,0.092,0.0896,0.0865,0.0857,0.0861,0.0842,0.0816,0.0832,0.0824,0.0825,0.0825,0.0789,0.0786,0.0816,0.0816,0.0815,0.0815,0,0.0865,0.0877,0.0883,0.0902,0.0915,0.0926,0.0937,0.0953,0.0956,0.0964,0.0967,0.094,0.0925,0.091,0.089,0.0879,0.0856,0.084,0.0816,0.0833,0.0793,0.0788,0.0821,0.082,0.0819,0.0818,0,0,0.0861,0.0888,0.0891,0.0901,0.0924,0.0936,0.096,0.0982,0.1003,0.1005,0.1026,0.0998,0.099,0.0971,0.0944,0.0917,0.0897,0.0884,0.0881,0.086,0.0831,0.0801,0.0793,0.0883,0.0883,0.0883,0.0801,0,0.0867,0.0889,0.0907,0.0933,0.0943,0.0963,0.0988,0.1012,0.103,0.1055,0.1036,0.1039,0.1011,0.1005,0.098,0.0926,0.0889,0.0921,0.0808,0.0804,0.0785,0.0788,0.0785,0.071,0.0796,0.0795,0.0795,0,0.088,0.0892,0.0911,0.0948,0.0954,0.0974,0.1018,0.1044,0.108,0.1094,0.1105,0.1097,0.1077,0.1042,0.0963,0.0987,0.0912,0.0861,0.0856,0.0801,0.0767,0.0706,0.0699,0.0632,0.0787,0.0788,0.0788,0,0.087,0.0901,0.0915,0.0925,0.0964,0.0981,0.1007,0.1051,0.108,0.1119,0.114,0.1129,0.1114,0.1044,0.096,0.0956,0.0865,0.084,0.0738,0.0734,0.0694,0.0687,0.0618,0.0762,0.0762,0.0762,0.0763,0,0.0875,0.0886,0.091,0.0917,0.0945,0.0977,0.1017,0.1051,0.1099,0.1139,0.1154,0.1173,0.1111,0.1065,0.0978,0.0858,0.0875,0.0742,0.0713,0.0717,0.0714,0.0624,0.0573,0.0759,0.076,0.0761,0.0761,0,0.086,0.0877,0.0893,0.0925,0.0939,0.0957,0.1017,0.1054,0.11,0.1152,0.1165,0.1191,0.1139,0.107,0.0953,0.0868,0.0709,0.0703,0.0714,0.0688,0.0525,0.0478,0.0326,0.0336,0.0572,0.0571,0.057,0,0.0851,0.0857,0.0886,0.0899,0.0912,0.0947,0.0981,0.1043,0.109,0.1162,0.1187,0.1169,0.1173,0.1017,0.0872,0.0722,0.0653,0.0596,0.0578,0.0516,0.0441,0.0397,0.0416,0.0548,0.0547,0.0546,0.0545,0,0.0827,0.0837,0.085,0.0876,0.0906,0.0952,0.1006,0.1045,0.1128,0.1181,0.1237,0.1247,0.1118,0.0998,0.0807,0.0688,0.0552,0.057,0.0503,0.0414,0.0361,0.0359,0.0599,0.0537,0.0538,0.0538,0.0539,0.0539,0.0802,0.0808,0.0829,0.0857,0.0896,0.096,0.1004,0.1078,0.1159,0.1261,0.127,0.1316,0.1147,0.0896,0.073,0.045,0.0453,0.0365,0.0311,0.0271,0.0287,0.0508,0.0417,0.0417,0.0418,0.0418,0.0418,0,0.0771,0.0791,0.0814,0.0857,0.0898,0.0933,0.1026,0.1085,0.1183,0.1287,0.1351,0.1319,0.1093,0.0852,0.0463,0.0247,0.0205,0.0148,0.0097,0.0132,0.0323,0.0333,0.0223,0.0223,0.0223,0.0223,0.0223,0.0223,0.0758,0.077,0.0793,0.0851,0.0889,0.096,0.1019,0.1111,0.1205,0.1319,0.138,0.1428,0.126,0.0586,0.0142,0.0047,-0.0048,-0.0129,-0.0128,0.0005,0.0023,0.0039,0.0039,-0.0131,-0.0131,-0.0266,-0.0268,-0.0269]}],[{"header":{"parameterUnit":"m.s-1","parameterCategory":2,"la1":30.2991,"la2":30.254,"lo1":-89.0895,"lo2":-89.0444,"dy":0.0017,"dx":0.0017,"nx":28,"ny":28,"refTime":"2024-07-13T09:00:00:Z","depth":"2","parameterNumber":2,"parameterNumberName":"U-component_of_CURRENTS"},"data":[0,0,0,0,0,0,0,0,0,0,0,0,0,0,0,0,0,0,0,0,0,0,0,0,0,0,0,0,0,0,0,0,0,0,0,0,0,0,0,0,0,0,0,0,0,0,0,0,0,0,0,0,0,0,0,0,0,0,0.072,0.0721,0,0.0762,0.0762,0.0762,0.0792,0.0793,0.0793,0.0794,0.0855,0.0856,0.0857,0,0,0,0,0,0,0,0,0,0,0,0,0,0.0641,0.0642,0.072,0.0721,0.0722,0.0762,0.0762,0.0762,0.0792,0.0793,0.0793,0.0794,0.0855,0.0856,0.0857,0,0,0,0,0,0,0,0,0,0,0,0,0,0.0673,0.0642,0.072,0.0746,0.0749,0.0762,0.0762,0.0762,0.0791,0.0793,0.0794,0.0795,0.0854,0.0856,0.0857,0.0842,0,0,0.0861,0.0862,0,0,0,0,0,0,0,0,0.0671,0.0675,0.0741,0.0744,0.0748,0.0778,0.0757,0.0792,0.0791,0.0769,0.0794,0.0795,0.0834,0.0837,0.0834,0.0845,0.0848,0.0861,0.0862,0.0863,0.0863,0,0,0,0,0,0,0,0.0669,0.0673,0.0731,0.0742,0.0746,0.0748,0.0753,0.0763,0.079,0.0771,0.0775,0.0789,0.0835,0.0832,0.0836,0.0849,0.0861,0.0862,0.0863,0.0864,0.094,0.0941,0,0,0,0,0,0,0.0676,0.0671,0.0729,0.0733,0.0718,0.0749,0.0755,0.0762,0.079,0.0797,0.0788,0.079,0.0829,0.0834,0.0838,0.0909,0.0863,0.0864,0.0865,0.0939,0.094,0.0942,0,0,0,0,0,0,0.0674,0.068,0.0728,0.0708,0.0715,0.075,0.0758,0.0763,0.0803,0.0803,0.081,0.0829,0.083,0.0836,0.0877,0.0908,0.0864,0.0866,0.0938,0.0939,0.0941,0.0995,0,0,0,0,0,0,0.0671,0.0679,0.0696,0.0708,0.0717,0.0755,0.0758,0.0763,0.081,0.0815,0.084,0.0844,0.0832,0.0875,0.0879,0.0909,0.0867,0.0936,0.0938,0.0941,0.0992,0.0999,0.1004,0,0,0,0,0,0.0668,0.0685,0.0696,0.0705,0.0736,0.0757,0.0761,0.0785,0.0812,0.0826,0.085,0.0846,0.0892,0.0877,0.0881,0.0913,0.0935,0.0938,0.094,0.0989,0.0997,0.1004,0,0,0,0,0,0,0.0683,0.069,0.0703,0.0729,0.0753,0.0765,0.0788,0.0811,0.084,0.0864,0.0861,0.0866,0.0909,0.0907,0.0891,0.0941,0.0913,0.0917,0.0949,0.0957,0.0963,0.0969,0.0868,0,0,0,0,0,0.0689,0.0694,0.0714,0.0742,0.0754,0.0781,0.08,0.0825,0.085,0.0866,0.0887,0.0908,0.0914,0.0935,0.0939,0.0974,0.0951,0.0997,0.1003,0.1009,0.1016,0.0988,0.0992,0.0951,0.0951,0.0951,0,0,0.0713,0.0714,0.0725,0.0745,0.0764,0.0781,0.0795,0.0843,0.0867,0.0868,0.092,0.0933,0.0927,0.0957,0.0977,0.0967,0.1012,0.1012,0.1017,0.1022,0.0991,0.0995,0.0999,0.0953,0.0952,0.0952,0,0,0.0736,0.0756,0.0759,0.0773,0.0809,0.0819,0.0844,0.0883,0.0911,0.0961,0.096,0.0994,0.1025,0.1016,0.1015,0.1062,0.104,0.1078,0.1123,0.1096,0.1099,0.1101,0.1088,0.1088,0.1087,0.1087,0.1087,0,0.0767,0.0771,0.0771,0.0777,0.08,0.0839,0.0865,0.0887,0.0942,0.0963,0.0991,0.1035,0.1044,0.1051,0.1079,0.1075,0.1065,0.1093,0.1103,0.1104,0.1105,0.1091,0.1091,0.109,0.109,0.109,0.1089,0,0.0777,0.0796,0.0806,0.0813,0.0833,0.0873,0.0899,0.0939,0.0992,0.1014,0.1067,0.1084,0.1113,0.1121,0.1124,0.1142,0.1134,0.1106,0.108,0.1113,0.1096,0.1095,0.1094,0.1093,0.1092,0.1092,0,0,0.0821,0.0812,0.0824,0.0827,0.0866,0.088,0.0922,0.0957,0.099,0.1053,0.1091,0.1129,0.1166,0.1169,0.1178,0.1171,0.1185,0.1166,0.1164,0.1149,0.1144,0.118,0.1181,0.1162,0.1162,0.1162,0.1132,0,0.0842,0.0838,0.0842,0.0873,0.0878,0.0916,0.0944,0.0983,0.1031,0.1073,0.1104,0.1155,0.1173,0.122,0.1213,0.1195,0.1184,0.1197,0.1119,0.1117,0.114,0.1182,0.1013,0.0976,0.1131,0.113,0.113,0,0.0859,0.0845,0.0868,0.0881,0.0894,0.0931,0.0983,0.1017,0.1065,0.111,0.1163,0.1196,0.1236,0.1238,0.1222,0.1237,0.1207,0.1178,0.1175,0.1189,0.1151,0.0967,0.0967,0.1128,0.1128,0.1128,0.1128,0,0.0863,0.0875,0.0889,0.0899,0.0918,0.0959,0.0995,0.1045,0.1084,0.1157,0.1209,0.1233,0.1294,0.1248,0.1254,0.124,0.121,0.1165,0.1153,0.1154,0.0986,0.0974,0.1122,0.1122,0.1122,0.1122,0.1122,0,0.0873,0.0898,0.09,0.0908,0.0951,0.0974,0.1043,0.1082,0.1147,0.1206,0.1254,0.1312,0.1307,0.1307,0.1257,0.1234,0.1215,0.1176,0.1154,0.1004,0.0995,0.1102,0.11,0.1121,0.1121,0.1121,0.1122,0,0.0902,0.0896,0.0918,0.0939,0.0956,0.1004,0.1085,0.1118,0.1199,0.1282,0.1325,0.1389,0.1426,0.1391,0.1334,0.1272,0.1211,0.1192,0.1043,0.1006,0.1163,0.1164,0.1164,0.1165,0.1166,0.1167,0.1168,0,0.0917,0.0921,0.0949,0.0969,0.1003,0.1063,0.1096,0.1155,0.1199,0.1331,0.1365,0.1454,0.1496,0.144,0.1325,0.123,0.1268,0.1046,0.099,0.1191,0.1169,0.1169,0.1169,0.0774,0.0771,0.0769,0.0767,0,0.0934,0.0961,0.0963,0.1004,0.1045,0.1083,0.1149,0.1177,0.1262,0.1332,0.1439,0.1487,0.1469,0.1328,0.1238,0.1138,0.1053,0.1006,0.1217,0.0825,0.083,0.0807,0.0817,0.0748,0.075,0.0752,0.0753,0.0753,0.0959,0.0967,0.0967,0.1021,0.1071,0.1114,0.1151,0.1208,0.1267,0.1351,0.1396,0.1397,0.1223,0.1036,0.099,0.0963,0.0982,0.0871,0.0873,0.0878,0.0874,0.0885,0.0811,0.0814,0.0815,0.0817,0.0819,0,0.0969,0.0959,0.0978,0.1011,0.1071,0.1133,0.1181,0.1195,0.127,0.1276,0.133,0.1026,0.0895,0.0857,0.0768,0.0714,0.0656,0.0718,0.0611,0.0625,0.0639,0.0622,0.0493,0.0494,0.0495,0.0496,0,0,0.0951,0.0935,0.0924,0.0976,0.1066,0.1133,0.1181,0.122,0.1211,0.1126,0.1057,0.089,0.0801,0.0623,0.0539,0.0585,0.0635,0.0562,0.0791,0.0681,0.0698,0.0659,0.0641,0,0,0,0,0]},{"header":{"parameterUnit":"m.s-1","parameterCategory":2,"la1":30.2991,"la2":30.254,"lo1":-89.0895,"lo2":-89.0444,"dy":0.0017,"dx":0.0017,"nx":28,"ny":28,"refTime":"2024-07-13T09:00:00:Z","depth":"2","parameterNumber":3,"parameterNumberName":"V-component_of_CURRENTS"},"data":[0,0,0,0,0,0,0,0,0,0,0,0,0,0,0,0,0,0,0,0,0,0,0,0,0,0,0,0,0,0,0,0,0,0,0,0,0,0,0,0,0,0,0,0,0,0,0,0,0,0,0,0,0,0,0,0,0,0,-0.0203,-0.0203,0,-0.0287,-0.0288,-0.0289,-0.0344,-0.0344,-0.0344,-0.0344,-0.0423,-0.0425,-0.0427,0,0,0,0,0,0,0,0,0,0,0,0,0,-0.0139,-0.014,-0.0203,-0.0204,-0.0204,-0.0287,-0.0288,-0.029,-0.0344,-0.0344,-0.0344,-0.0344,-0.0423,-0.0425,-0.0427,0,0,0,0,0,0,0,0,0,0,0,0,0,-0.0191,-0.014,-0.0202,-0.024,-0.0244,-0.0287,-0.0288,-0.029,-0.0344,-0.0344,-0.0344,-0.0344,-0.0422,-0.0425,-0.0428,-0.0441,0,0,-0.0437,-0.0438,0,0,0,0,0,0,0,0,-0.0188,-0.0194,-0.0234,-0.0238,-0.0242,-0.0304,-0.0295,-0.034,-0.0344,-0.0308,-0.0344,-0.0345,-0.0382,-0.0388,-0.0406,-0.0445,-0.0448,-0.0437,-0.0439,-0.044,-0.0441,0,0,0,0,0,0,0,-0.0184,-0.0191,-0.0238,-0.0234,-0.024,-0.027,-0.0278,-0.0304,-0.0343,-0.0311,-0.0315,-0.0321,-0.0384,-0.0403,-0.0408,-0.0449,-0.0437,-0.044,-0.0441,-0.0442,-0.0525,-0.0525,0,0,0,0,0,0,-0.0168,-0.0187,-0.0235,-0.024,-0.0213,-0.0271,-0.0279,-0.0285,-0.0344,-0.0352,-0.0321,-0.0323,-0.0398,-0.0405,-0.0411,-0.0425,-0.044,-0.0443,-0.0444,-0.0524,-0.0525,-0.0525,0,0,0,0,0,0,-0.0166,-0.0171,-0.0232,-0.0214,-0.0224,-0.0271,-0.0278,-0.0287,-0.0296,-0.0351,-0.036,-0.0319,-0.0398,-0.0407,-0.0432,-0.0429,-0.0444,-0.0447,-0.0524,-0.0524,-0.0525,-0.0457,0,0,0,0,0,0,-0.0164,-0.017,-0.0167,-0.0213,-0.0224,-0.0247,-0.0278,-0.0288,-0.0299,-0.0303,-0.0352,-0.0361,-0.0399,-0.0428,-0.0435,-0.0433,-0.0449,-0.0523,-0.0524,-0.0525,-0.0459,-0.0455,-0.0452,0,0,0,0,0,-0.0161,-0.0155,-0.0167,-0.0172,-0.0219,-0.0246,-0.0255,-0.0291,-0.0298,-0.03,-0.0337,-0.0359,-0.0439,-0.043,-0.0439,-0.0438,-0.0523,-0.0524,-0.0525,-0.046,-0.0456,-0.0452,0,0,0,0,0,0,-0.0129,-0.0161,-0.0175,-0.018,-0.0205,-0.0254,-0.0258,-0.0278,-0.0309,-0.0309,-0.0359,-0.037,-0.0396,-0.0426,-0.0415,-0.0467,-0.0486,-0.0489,-0.0435,-0.0431,-0.0428,-0.0415,-0.0451,0,0,0,0,0,-0.0118,-0.0123,-0.0158,-0.0162,-0.0168,-0.0208,-0.0222,-0.0243,-0.0277,-0.029,-0.0327,-0.0369,-0.0409,-0.0424,-0.0465,-0.0482,-0.0509,-0.0492,-0.0488,-0.0485,-0.0483,-0.0537,-0.0538,-0.0528,-0.0528,-0.0528,0,0,-0.011,-0.0126,-0.013,-0.0155,-0.0177,-0.0185,-0.0217,-0.0228,-0.0241,-0.0293,-0.0316,-0.0356,-0.0413,-0.0443,-0.0457,-0.0463,-0.0496,-0.0486,-0.0483,-0.0482,-0.0538,-0.0539,-0.054,-0.0529,-0.0529,-0.0529,0,0,-0.0094,-0.0102,-0.0102,-0.0112,-0.0134,-0.0159,-0.0154,-0.0193,-0.0213,-0.0236,-0.0286,-0.032,-0.0371,-0.0418,-0.0446,-0.0448,-0.048,-0.0461,-0.0428,-0.0481,-0.0482,-0.0483,-0.0484,-0.0486,-0.0456,-0.0456,-0.0455,0,-0.0084,-0.0084,-0.0105,-0.0102,-0.0106,-0.014,-0.0136,-0.0163,-0.0208,-0.0223,-0.0232,-0.0321,-0.0362,-0.0412,-0.0416,-0.0439,-0.0459,-0.0433,-0.0475,-0.0477,-0.048,-0.048,-0.0483,-0.0452,-0.0453,-0.0453,-0.0453,0,-0.0073,-0.0064,-0.0059,-0.0068,-0.0075,-0.0073,-0.0105,-0.0117,-0.0137,-0.0172,-0.0215,-0.0275,-0.0323,-0.0348,-0.038,-0.0422,-0.0425,-0.0465,-0.0478,-0.0476,-0.0477,-0.0481,-0.0448,-0.0449,-0.045,-0.0451,0,0,-0.0077,-0.0056,-0.0055,-0.0041,-0.005,-0.0057,-0.0064,-0.0091,-0.0094,-0.0143,-0.0157,-0.0235,-0.026,-0.0295,-0.0344,-0.0393,-0.0414,-0.0427,-0.0431,-0.0413,-0.0493,-0.0428,-0.0427,-0.0464,-0.0466,-0.0467,-0.0473,0,-0.0064,-0.0041,-0.0038,-0.0015,-0.0002,-0.0015,-0.0018,-0.0044,-0.0068,-0.0091,-0.016,-0.0189,-0.0243,-0.0251,-0.0311,-0.0402,-0.0428,-0.0406,-0.051,-0.0512,-0.0445,-0.0432,-0.0406,-0.0405,-0.0477,-0.0478,-0.0479,0,-0.006,-0.0041,-0.0013,0.0024,0.0029,0.0033,0.0035,0.003,-0.0009,-0.0021,-0.0063,-0.011,-0.0181,-0.022,-0.0356,-0.034,-0.0399,-0.0465,-0.0468,-0.0437,-0.0457,-0.0429,-0.0411,-0.0486,-0.0486,-0.0485,-0.0485,0,-0.006,-0.0022,0.0004,0.0015,0.0041,0.0051,0.0061,0.0043,0.0053,0.0027,0.0043,-0.0059,-0.0083,-0.0205,-0.0322,-0.0341,-0.0463,-0.0507,-0.0497,-0.0491,-0.0504,-0.0497,-0.0583,-0.0583,-0.0583,-0.0583,-0.0583,0,-0.005,-0.0027,0.0009,0.0021,0.0058,0.0072,0.0101,0.0102,0.0115,0.0139,0.0083,0.0085,-0.0084,-0.0169,-0.0294,-0.0394,-0.0437,-0.0478,-0.0495,-0.0474,-0.0466,-0.0578,-0.0577,-0.0584,-0.0583,-0.0583,-0.0583,0,-0.0052,-0.0032,0.0003,0.0041,0.0058,0.0081,0.0142,0.0167,0.0188,0.0224,0.0231,0.0183,0.0086,-0.0066,-0.0247,-0.0325,-0.0451,-0.0469,-0.04,-0.0407,-0.0444,-0.044,-0.0456,-0.0453,-0.0452,-0.045,-0.0449,0,-0.0047,-0.0032,0.0015,0.0041,0.0061,0.0107,0.0147,0.0189,0.0231,0.0284,0.0306,0.0257,0.0227,0.002,-0.0129,-0.0288,-0.0387,-0.0364,-0.0398,-0.0419,-0.0434,-0.0433,-0.0432,-0.0381,-0.0379,-0.0378,-0.0377,0,-0.0036,-0.0027,0.0001,0.0055,0.0096,0.0161,0.0226,0.0278,0.0344,0.0395,0.0449,0.0438,0.0304,0.014,-0.0045,-0.0149,-0.0341,-0.0335,-0.0409,-0.0403,-0.0346,-0.0361,-0.0363,-0.0364,-0.0365,-0.0366,-0.0367,-0.0367,-0.0035,-0.0009,0.0027,0.0077,0.0135,0.0225,0.0302,0.0392,0.0489,0.0601,0.0561,0.0547,0.0302,0.0091,-0.0054,-0.0164,-0.0179,-0.0293,-0.0299,-0.0307,-0.0283,-0.0225,-0.0213,-0.0213,-0.0214,-0.0214,-0.0214,0,-0.0001,0.0023,0.0056,0.0127,0.0207,0.024,0.0369,0.0466,0.0618,0.066,0.0727,0.0486,0.0327,0.009,-0.0031,-0.0136,-0.0151,-0.0204,-0.0252,-0.0262,-0.0272,-0.0249,-0.017,-0.017,-0.017,-0.017,0,0,0.0016,0.0053,0.0069,0.0183,0.0251,0.0394,0.0489,0.0631,0.0698,0.0751,0.0714,0.0629,0.031,0.0159,-0.0006,-0.0069,-0.0118,-0.006,-0.0081,-0.0124,-0.0132,-0.0306,-0.0278,0,0,0,0,0]}],[{"header":{"parameterUnit":"m.s-1","parameterCategory":2,"la1":30.2991,"la2":30.254,"lo1":-89.0895,"lo2":-89.0444,"dy":0.0017,"dx":0.0017,"nx":28,"ny":28,"refTime":"2024-07-13T09:00:00:Z","depth":"4","parameterNumber":2,"parameterNumberName":"U-component_of_CURRENTS"},"data":[0,0,0,0,0,0,0,0,0,0,0,0,0,0,0,0,0,0,0,0,0,0,0,0,0,0,0,0,0,0,0,0,0,0,0,0,0,0,0,0,0,0,0,0,0,0,0,0,0,0,0,0,0,0,0,0,0,0,-0.0273,-0.0273,0,-0.0317,-0.0317,-0.0318,-0.0392,-0.0394,-0.0396,-0.0397,-0.0573,-0.0576,-0.0579,0,0,0,0,0,0,0,0,0,0,0,0,0,-0.0233,-0.0233,-0.0272,-0.0273,-0.0274,-0.0317,-0.0318,-0.0318,-0.0392,-0.0394,-0.0396,-0.0398,-0.0572,-0.0576,-0.0579,0,0,0,0,0,0,0,0,0,0,0,0,0,-0.0258,-0.0233,-0.0272,-0.0319,-0.0324,-0.0317,-0.0318,-0.0318,-0.0392,-0.0394,-0.0397,-0.0399,-0.0571,-0.0575,-0.058,-0.0557,0,0,-0.0594,-0.0596,0,0,0,0,0,0,0,0,-0.0257,-0.0259,-0.0311,-0.0316,-0.0321,-0.0355,-0.0368,-0.0406,-0.0391,-0.0362,-0.0397,-0.04,-0.0513,-0.0522,-0.0518,-0.0566,-0.0573,-0.0594,-0.0597,-0.0599,-0.0601,0,0,0,0,0,0,0,-0.0255,-0.0257,-0.0287,-0.0312,-0.0318,-0.0332,-0.0338,-0.0375,-0.0422,-0.0365,-0.0371,-0.0381,-0.0516,-0.0513,-0.0523,-0.0576,-0.0594,-0.0598,-0.0601,-0.0603,-0.0756,-0.0758,0,0,0,0,0,0,-0.0254,-0.0256,-0.0285,-0.0288,-0.0298,-0.0331,-0.0337,-0.0339,-0.0419,-0.0434,-0.0379,-0.0384,-0.0504,-0.0518,-0.053,-0.0654,-0.0599,-0.0604,-0.0606,-0.0755,-0.0757,-0.0758,0,0,0,0,0,0,-0.0253,-0.0256,-0.0284,-0.0277,-0.0282,-0.0329,-0.033,-0.0338,-0.039,-0.0429,-0.0446,-0.0428,-0.0507,-0.0523,-0.0611,-0.0656,-0.0606,-0.061,-0.0754,-0.0756,-0.0757,-0.081,0,0,0,0,0,0,-0.0251,-0.0255,-0.0272,-0.0276,-0.0282,-0.0302,-0.0328,-0.0337,-0.039,-0.0399,-0.0476,-0.0491,-0.051,-0.0604,-0.0615,-0.0662,-0.0613,-0.0752,-0.0754,-0.0757,-0.0806,-0.0813,-0.0819,0,0,0,0,0,-0.025,-0.0255,-0.0272,-0.0278,-0.0298,-0.0303,-0.0307,-0.0347,-0.0391,-0.0405,-0.0474,-0.0492,-0.0627,-0.0609,-0.0622,-0.0671,-0.0751,-0.0754,-0.0757,-0.0803,-0.0812,-0.0819,0,0,0,0,0,0,-0.0248,-0.0263,-0.0283,-0.0295,-0.0311,-0.0317,-0.034,-0.0372,-0.0432,-0.0475,-0.0512,-0.0531,-0.0624,-0.0634,-0.0613,-0.0719,-0.069,-0.0696,-0.0721,-0.073,-0.0736,-0.0713,-0.0617,0,0,0,0,0,-0.0253,-0.0269,-0.0278,-0.0295,-0.0303,-0.0333,-0.0351,-0.0388,-0.0432,-0.0463,-0.0521,-0.0584,-0.0632,-0.0675,-0.0716,-0.0776,-0.075,-0.0814,-0.082,-0.0825,-0.0815,-0.0818,-0.0823,-0.0768,-0.0768,-0.0768,0,0,-0.0272,-0.0272,-0.0293,-0.0298,-0.0316,-0.0331,-0.035,-0.0397,-0.0432,-0.0474,-0.0563,-0.0617,-0.0654,-0.0723,-0.0765,-0.0749,-0.0826,-0.0829,-0.0834,-0.082,-0.0821,-0.0826,-0.0831,-0.077,-0.0769,-0.0769,0,0,-0.0283,-0.0303,-0.0314,-0.0328,-0.0363,-0.037,-0.0395,-0.0439,-0.0481,-0.0561,-0.0603,-0.0684,-0.0763,-0.0792,-0.0814,-0.0877,-0.0861,-0.0904,-0.0923,-0.0927,-0.0931,-0.0934,-0.0894,-0.0894,-0.0906,-0.0906,-0.0906,0,-0.0302,-0.031,-0.0321,-0.0328,-0.0352,-0.0391,-0.0418,-0.0446,-0.0527,-0.057,-0.0606,-0.074,-0.0786,-0.0847,-0.0874,-0.0893,-0.0875,-0.0894,-0.0934,-0.0936,-0.0939,-0.0898,-0.0896,-0.0909,-0.0908,-0.0908,-0.0908,0,-0.0315,-0.0336,-0.0342,-0.0362,-0.0386,-0.0419,-0.0455,-0.0505,-0.0576,-0.0624,-0.0734,-0.0793,-0.0866,-0.09,-0.0912,-0.0961,-0.0934,-0.0942,-0.0911,-0.0947,-0.0902,-0.0899,-0.0913,-0.0912,-0.0911,-0.091,0,0,-0.0316,-0.0344,-0.0352,-0.0374,-0.0418,-0.0436,-0.0487,-0.0536,-0.0594,-0.0688,-0.0754,-0.0854,-0.0908,-0.0933,-0.0968,-0.0981,-0.0989,-0.0974,-0.0973,-0.0927,-0.0967,-0.0821,-0.0804,-0.101,-0.1011,-0.1011,-0.0923,0,-0.0323,-0.0332,-0.0358,-0.0405,-0.0417,-0.047,-0.0511,-0.0581,-0.065,-0.0721,-0.0795,-0.0879,-0.091,-0.0964,-0.0983,-0.0992,-0.0988,-0.101,-0.0944,-0.0941,-0.0802,-0.0798,-0.1012,-0.0921,-0.092,-0.092,-0.0919,0,-0.0328,-0.0329,-0.0371,-0.0423,-0.044,-0.0503,-0.0585,-0.063,-0.0719,-0.0775,-0.0859,-0.0905,-0.0951,-0.0971,-0.0981,-0.0996,-0.0982,-0.0978,-0.0975,-0.0814,-0.079,-0.0881,-0.0914,-0.0915,-0.0915,-0.0915,-0.0916,0,-0.0307,-0.0343,-0.0379,-0.0402,-0.0467,-0.0538,-0.0594,-0.069,-0.0729,-0.0821,-0.0854,-0.0921,-0.0949,-0.0956,-0.0936,-0.0968,-0.0912,-0.0952,-0.0797,-0.0786,-0.0922,-0.092,-0.0941,-0.0941,-0.0941,-0.0941,-0.0941,0,-0.0296,-0.0325,-0.0398,-0.0424,-0.0493,-0.0571,-0.0673,-0.0719,-0.0807,-0.0837,-0.0901,-0.0887,-0.095,-0.0917,-0.0914,-0.0816,-0.0887,-0.0777,-0.0752,-0.0944,-0.0946,-0.0919,-0.0917,-0.0938,-0.0939,-0.0939,-0.094,0,-0.0285,-0.032,-0.0356,-0.0449,-0.0492,-0.0565,-0.0694,-0.0732,-0.0833,-0.0857,-0.0873,-0.0868,-0.0787,-0.0795,-0.077,-0.0758,-0.0701,-0.0648,-0.0804,-0.0793,-0.0581,-0.0584,-0.0478,-0.0472,-0.0467,-0.0462,-0.0459,0,-0.0277,-0.0302,-0.0372,-0.0393,-0.0463,-0.0575,-0.062,-0.0735,-0.0747,-0.0803,-0.0761,-0.072,-0.0691,-0.0517,-0.0548,-0.049,-0.0494,-0.0491,-0.0585,-0.0546,-0.0534,-0.0545,-0.0554,-0.0451,-0.045,-0.0448,-0.0447,0,-0.0263,-0.0303,-0.0323,-0.0361,-0.0427,-0.0445,-0.0527,-0.0534,-0.0623,-0.0715,-0.0613,-0.0571,-0.0451,-0.0388,-0.0333,-0.0311,-0.0519,-0.044,-0.0452,-0.0541,-0.0513,-0.0508,-0.0523,-0.043,-0.0432,-0.0434,-0.0435,0,-0.0258,-0.0256,-0.0284,-0.0321,-0.0342,-0.0301,-0.0362,-0.0359,-0.0392,-0.0478,-0.042,-0.0379,-0.0399,-0.0285,-0.0232,-0.0188,-0.0207,-0.0263,-0.0285,-0.0305,-0.0291,-0.0234,-0.0019,0,0,0,0,0,-0.0244,-0.0225,-0.0233,-0.0229,-0.0226,-0.0236,-0.0262,-0.0313,-0.0416,-0.0309,-0.0382,-0.0261,-0.0182,-0.0142,-0.0055,-0.0139,-0.0201,-0.0043,-0.0276,-0.0333,-0.0353,-0.0355,0,0,0,0,0,0,-0.0227,-0.0226,-0.0211,-0.014,-0.0114,-0.0086,-0.0089,-0.0143,-0.0088,-0.0201,-0.0113,-0.0242,-0.0112,-0.0201,-0.0043,-0.0042,-0.0183,-0.0048,-0.0047,-0.0322,-0.034,-0.0356,-0.0365,0,0,0,0,0]},{"header":{"parameterUnit":"m.s-1","parameterCategory":2,"la1":30.2991,"la2":30.254,"lo1":-89.0895,"lo2":-89.0444,"dy":0.0017,"dx":0.0017,"nx":28,"ny":28,"refTime":"2024-07-13T09:00:00:Z","depth":"4","parameterNumber":3,"parameterNumberName":"V-component_of_CURRENTS"},"data":[0,0,0,0,0,0,0,0,0,0,0,0,0,0,0,0,0,0,0,0,0,0,0,0,0,0,0,0,0,0,0,0,0,0,0,0,0,0,0,0,0,0,0,0,0,0,0,0,0,0,0,0,0,0,0,0,0,0,-0.0249,-0.025,0,-0.0279,-0.0279,-0.028,-0.0288,-0.0288,-0.0288,-0.0288,-0.0305,-0.0305,-0.0306,0,0,0,0,0,0,0,0,0,0,0,0,0,-0.0223,-0.0223,-0.0249,-0.025,-0.025,-0.0279,-0.028,-0.028,-0.0288,-0.0288,-0.0288,-0.0288,-0.0304,-0.0305,-0.0306,0,0,0,0,0,0,0,0,0,0,0,0,0,-0.0241,-0.0223,-0.0249,-0.0258,-0.026,-0.0279,-0.028,-0.028,-0.0288,-0.0288,-0.0288,-0.0288,-0.0304,-0.0305,-0.0306,-0.0314,0,0,-0.0308,-0.0309,0,0,0,0,0,0,0,0,-0.024,-0.0242,-0.0257,-0.0258,-0.0259,-0.0281,-0.0276,-0.0291,-0.0288,-0.0277,-0.0288,-0.0288,-0.0296,-0.0297,-0.0302,-0.0314,-0.0315,-0.0308,-0.0309,-0.0309,-0.0309,0,0,0,0,0,0,0,-0.0238,-0.024,-0.026,-0.0257,-0.0259,-0.0269,-0.0271,-0.0279,-0.0286,-0.0278,-0.0278,-0.0283,-0.0296,-0.0302,-0.0303,-0.0315,-0.0308,-0.0309,-0.031,-0.031,-0.0352,-0.0352,0,0,0,0,0,0,-0.0235,-0.0239,-0.0259,-0.0261,-0.025,-0.027,-0.0272,-0.0273,-0.0286,-0.0288,-0.0283,-0.0283,-0.03,-0.0302,-0.0303,-0.0317,-0.0309,-0.031,-0.031,-0.0351,-0.0352,-0.0352,0,0,0,0,0,0,-0.0234,-0.0237,-0.0258,-0.0252,-0.0255,-0.027,-0.0272,-0.0274,-0.0292,-0.0291,-0.0292,-0.03,-0.03,-0.0302,-0.0332,-0.0318,-0.031,-0.0311,-0.035,-0.0351,-0.0352,-0.0342,0,0,0,0,0,0,-0.0233,-0.0236,-0.0247,-0.0251,-0.0256,-0.0276,-0.0272,-0.0275,-0.0294,-0.0295,-0.0305,-0.0306,-0.03,-0.0331,-0.0333,-0.0318,-0.0312,-0.0349,-0.0351,-0.0352,-0.0341,-0.0342,-0.0343,0,0,0,0,0,-0.0232,-0.0236,-0.0247,-0.025,-0.0266,-0.0277,-0.028,-0.029,-0.0295,-0.0305,-0.0322,-0.0306,-0.0338,-0.0333,-0.0335,-0.032,-0.0349,-0.035,-0.0352,-0.0341,-0.0342,-0.0343,0,0,0,0,0,0,-0.0229,-0.0237,-0.0249,-0.0256,-0.0273,-0.0279,-0.0292,-0.03,-0.0321,-0.033,-0.0326,-0.0328,-0.0345,-0.0345,-0.0338,-0.0338,-0.0336,-0.0338,-0.0328,-0.0329,-0.033,-0.0326,-0.0312,0,0,0,0,0,-0.0235,-0.0243,-0.0254,-0.0266,-0.0273,-0.0289,-0.0299,-0.0309,-0.0324,-0.0333,-0.0341,-0.0349,-0.035,-0.0352,-0.0361,-0.0367,-0.0356,-0.0358,-0.0358,-0.0359,-0.0359,-0.0339,-0.0337,-0.0357,-0.0357,-0.0357,0,0,-0.0246,-0.0245,-0.0257,-0.0267,-0.0281,-0.03,-0.0294,-0.0316,-0.0337,-0.0332,-0.0366,-0.0361,-0.0358,-0.0363,-0.0368,-0.036,-0.0348,-0.0361,-0.0361,-0.0361,-0.034,-0.0337,-0.0335,-0.0358,-0.0358,-0.0358,0,0,-0.0254,-0.0265,-0.0274,-0.0289,-0.031,-0.0319,-0.0329,-0.0348,-0.0361,-0.039,-0.0386,-0.0386,-0.0395,-0.0384,-0.0378,-0.0395,-0.036,-0.0383,-0.0374,-0.0354,-0.0352,-0.0349,-0.033,-0.0326,-0.0375,-0.0375,-0.0375,0,-0.0267,-0.0277,-0.0281,-0.0293,-0.0315,-0.033,-0.0356,-0.0369,-0.0398,-0.0411,-0.0405,-0.0408,-0.0405,-0.0395,-0.0386,-0.0395,-0.0371,-0.0366,-0.0353,-0.035,-0.0348,-0.0329,-0.0325,-0.0374,-0.0374,-0.0374,-0.0374,0,-0.0281,-0.0301,-0.0308,-0.0331,-0.0354,-0.0378,-0.04,-0.0422,-0.0435,-0.0446,-0.0452,-0.0439,-0.0428,-0.0419,-0.0401,-0.0375,-0.036,-0.036,-0.0344,-0.0345,-0.0325,-0.0321,-0.0374,-0.0374,-0.0374,-0.0374,0,0,-0.0281,-0.0312,-0.0318,-0.0346,-0.038,-0.0402,-0.0433,-0.0463,-0.0484,-0.0487,-0.0494,-0.0474,-0.0446,-0.0437,-0.0405,-0.0378,-0.0336,-0.0347,-0.0346,-0.0317,-0.0276,-0.0325,-0.0325,-0.0316,-0.0315,-0.0315,-0.0267,0,-0.0296,-0.032,-0.0339,-0.0395,-0.0419,-0.045,-0.0478,-0.051,-0.0522,-0.0532,-0.0502,-0.049,-0.0457,-0.0424,-0.0395,-0.0352,-0.0323,-0.0348,-0.0289,-0.0288,-0.0322,-0.0322,-0.0313,-0.0264,-0.0263,-0.0262,-0.0261,0,-0.0307,-0.0323,-0.037,-0.0429,-0.0446,-0.0487,-0.0539,-0.0559,-0.057,-0.0566,-0.0538,-0.051,-0.0454,-0.0427,-0.035,-0.0356,-0.0312,-0.0284,-0.0281,-0.0328,-0.0329,-0.0265,-0.0253,-0.0254,-0.0255,-0.0255,-0.0256,0,-0.0301,-0.0352,-0.0391,-0.0415,-0.0478,-0.0517,-0.0545,-0.0577,-0.0588,-0.0566,-0.0552,-0.0506,-0.0454,-0.0399,-0.0333,-0.032,-0.0265,-0.0248,-0.0259,-0.0261,-0.0234,-0.0237,-0.0204,-0.0204,-0.0205,-0.0205,-0.0205,0,-0.0306,-0.0346,-0.04,-0.0429,-0.0492,-0.0527,-0.0581,-0.0592,-0.0595,-0.0599,-0.055,-0.0525,-0.0436,-0.0396,-0.0341,-0.0295,-0.027,-0.026,-0.0255,-0.0232,-0.0235,-0.023,-0.0234,-0.0203,-0.0203,-0.0204,-0.0204,0,-0.0305,-0.0334,-0.0392,-0.0465,-0.0496,-0.0538,-0.0598,-0.0621,-0.0606,-0.0599,-0.0573,-0.0518,-0.0451,-0.04,-0.0318,-0.0304,-0.0263,-0.0256,-0.0245,-0.0239,-0.0263,-0.0267,-0.0244,-0.0246,-0.0247,-0.0248,-0.0249,0,-0.0306,-0.0332,-0.0416,-0.0457,-0.0504,-0.0564,-0.0605,-0.0621,-0.0625,-0.06,-0.0584,-0.0522,-0.0483,-0.0392,-0.0359,-0.0289,-0.0283,-0.0268,-0.0254,-0.0271,-0.0268,-0.027,-0.0272,-0.025,-0.0251,-0.0251,-0.0251,0,-0.0317,-0.035,-0.0392,-0.0465,-0.0531,-0.0582,-0.0628,-0.0616,-0.0614,-0.0621,-0.0551,-0.0507,-0.0455,-0.0387,-0.0348,-0.0303,-0.0283,-0.028,-0.0276,-0.0262,-0.0278,-0.0274,-0.0275,-0.0255,-0.0255,-0.0254,-0.0254,0,-0.0329,-0.0352,-0.0404,-0.0461,-0.0541,-0.057,-0.0594,-0.0591,-0.0584,-0.0542,-0.0535,-0.0474,-0.0448,-0.0398,-0.0372,-0.0332,-0.0308,-0.029,-0.0285,-0.0281,-0.0322,-0.035,-0.0344,0,0,0,0,0,-0.0335,-0.0343,-0.0397,-0.0447,-0.0519,-0.0561,-0.0601,-0.0609,-0.0607,-0.0546,-0.0525,-0.0473,-0.0414,-0.0398,-0.0355,-0.0407,-0.0324,-0.0363,-0.0304,-0.0278,-0.0273,-0.0322,0,0,0,0,0,0,-0.0342,-0.038,-0.0379,-0.0422,-0.0453,-0.0521,-0.0543,-0.0542,-0.0496,-0.049,-0.044,-0.0469,-0.0398,-0.0408,-0.0344,-0.0345,-0.0308,-0.035,-0.0351,-0.028,-0.0276,-0.0272,-0.0321,0,0,0,0,0]}]]